User: anonymous
Location: Mentone
(34.5413°N, 85.5351°W)
Time: 22:29:21
(UTC-05:00)
Language:

AO-Echo - Orbit

View from above orbital plane
View from above orbital plane
View from above satellite
View from above satellite

Ground track
Ground track

The orbit data is extracted from the following two-line orbital elements,

1 28375U 04025K   14259.55934140  .00000252  00000-0  87397-4 0  9322
2 28375 098.2582 203.3927 0084277 076.6393 284.4176 14.41426562537078
Epoch (UTC): 16 September 2014 13:25:27
Eccentricity: 0.0084277
inclination: 98.2582°
perigee height: 693 km
apogee height: 814 km
right ascension of ascending node: 203.3927°
argument of perigee: 76.6393°
revolutions per day: 14.41426562
mean anomaly at epoch: 284.4176°
orbit number at epoch: 53707

The dashed part of the orbit path shows where the satellite is in the earth's shadow,  

DLR